| time (UTC) | temp F | wind direction | speed knots | gust knots | rain 1hr in | rain 24hr in | rain mn in | humidity % | barometer mb |
| 20260504190036 | 75 | 204 | 1.7 | 7.8 | 0.00 | 0.00 | 0.00 | 33 | 1010.2 |
| 20260504184534 | 74 | 284 | 1.7 | 7.0 | 0.00 | 0.00 | 0.00 | 35 | 1010.2 |
| 20260504183027 | 73 | 253 | 3.5 | 8.7 | 0.00 | 0.00 | 0.00 | 39 | 1010.2 |
| 20260504181523 | 72 | 178 | 1.7 | 7.8 | 0.00 | 0.00 | 0.00 | 38 | 1010.2 |
| 20260504180020 | 71 | 236 | 2.6 | 6.1 | 0.00 | 0.00 | 0.00 | 43 | 1010.2 |
| 20260504174516 | 70 | 325 | 0.9 | 4.3 | 0.00 | 0.00 | 0.00 | 44 | 1010.2 |
| 20260504173012 | 68 | 166 | 0.0 | 2.6 | 0.00 | 0.00 | 0.00 | 47 | 1010.2 |
| 20260504171508 | 66 | 232 | 0.9 | 3.5 | 0.00 | 0.00 | 0.00 | 49 | 1010.2 |
| 20260504081557 | 49 | 304 | 0.0 | 0.0 | 0.00 | 0.00 | 0.00 | 72 | 1010.2 |
| 20260504044539 | 63 | 90 | 0.0 | 1.7 | 0.00 | 0.00 | 0.00 | 50 | 1010.2 |
| 20260504043042 | 64 | 90 | 0.0 | 1.7 | 0.00 | 0.00 | 0.00 | 46 | 1010.2 |
| 20260504041537 | 66 | 90 | 0.9 | 5.2 | 0.00 | 0.00 | 0.00 | 44 | 1010.2 |
| 20260504040037 | 66 | 101 | 0.9 | 2.6 | 0.00 | 0.00 | 0.00 | 46 | 1010.2 |
| 20260504034535 | 66 | 101 | 0.9 | 3.5 | 0.00 | 0.00 | 0.00 | 45 | 1010.2 |
| 20260504033034 | 67 | 24 | 1.7 | 3.5 | 0.00 | 0.00 | 0.00 | 47 | 1010.2 |
| 20260504031535 | 69 | 128 | 2.6 | 3.5 | 0.00 | 0.00 | 0.00 | 42 | 1010.2 |
| 20260504030033 | 71 | 167 | 2.6 | 3.5 | 0.00 | 0.00 | 0.00 | 39 | 1010.2 |
| 20260504024534 | 73 | 167 | 0.9 | 2.6 | 0.00 | 0.00 | 0.00 | 38 | 1010.2 |
| 20260504023035 | 76 | 167 | 0.9 | 2.6 | 0.00 | 0.00 | 0.00 | 38 | 1010.2 |
| 20260504021530 | 78 | 167 | 0.9 | 2.6 | 0.00 | 0.00 | 0.00 | 37 | 1010.2 |
| 20260504020029 | 81 | 167 | 0.9 | 2.6 | 0.00 | 0.00 | 0.00 | 31 | 1010.2 |
| 20260504014537 | 82 | 237 | 0.0 | 2.6 | 0.00 | 0.00 | 0.00 | 33 | 1010.2 |
| 20260504013036 | 82 | 207 | 0.9 | 2.6 | 0.00 | 0.00 | 0.00 | 28 | 1010.2 |
| 20260504011527 | 81 | 244 | 1.7 | 4.3 | 0.00 | 0.00 | 0.00 | 29 | 1010.2 |
| 20260504010026 | 82 | 194 | 2.6 | 7.8 | 0.00 | 0.00 | 0.00 | 25 | 1010.2 |
| 20260504004531 | 81 | 248 | 2.6 | 7.0 | 0.00 | 0.00 | 0.00 | 29 | 1010.2 |
| 20260504003024 | 81 | 250 | 1.7 | 7.8 | 0.00 | 0.00 | 0.00 | 26 | 1010.2 |
| 20260504001524 | 82 | 250 | 2.6 | 6.1 | 0.00 | 0.00 | 0.00 | 29 | 1010.2 |
| 20260504000023 | 81 | 92 | 0.9 | 3.5 | 0.00 | 0.00 | 0.00 | 23 | 1010.2 |
| 20260503234522 | 81 | 240 | 2.6 | 6.1 | 0.00 | 0.00 | 0.00 | 27 | 1010.2 |
| 20260503233022 | 82 | 194 | 0.9 | 6.1 | 0.00 | 0.00 | 0.00 | 25 | 1010.2 |
| 20260503231520 | 82 | 273 | 0.9 | 5.2 | 0.00 | 0.00 | 0.00 | 25 | 1010.2 |
| 20260503230017 | 82 | 216 | 0.9 | 7.0 | 0.00 | 0.00 | 0.00 | 27 | 1010.2 |
| 20260503224516 | 81 | 180 | 1.7 | 7.8 | 0.00 | 0.00 | 0.00 | 24 | 1010.2 |
| 20260503223015 | 80 | 309 | 2.6 | 8.7 | 0.00 | 0.00 | 0.00 | 24 | 1010.2 |
| 20260503221513 | 80 | 261 | 0.9 | 7.0 | 0.00 | 0.00 | 0.00 | 29 | 1010.2 |
| 20260503220012 | 79 | 275 | 2.6 | 11.3 | 0.00 | 0.00 | 0.00 | 26 | 1010.2 |
| 20260503214511 | 79 | 221 | 5.2 | 11.3 | 0.00 | 0.00 | 0.00 | 26 | 1010.2 |
| 20260503213010 | 79 | 292 | 1.7 | 7.8 | 0.00 | 0.00 | 0.00 | 27 | 1010.2 |
| 20260503211510 | 79 | 234 | 5.2 | 11.3 | 0.00 | 0.00 | 0.00 | 27 | 1010.2 |
| 20260503210007 | 78 | 235 | 4.3 | 9.6 | 0.00 | 0.00 | 0.00 | 26 | 1010.2 |
| 20260503204503 | 77 | 335 | 1.7 | 9.6 | 0.00 | 0.00 | 0.00 | 29 | 1010.2 |
| 20260503203006 | 76 | 278 | 4.3 | 9.6 | 0.00 | 0.00 | 0.00 | 28 | 1010.2 |
| 20260503201601 | 76 | 111 | 0.9 | 7.8 | 0.00 | 0.00 | 0.00 | 27 | 1010.2 |
| 20260503200106 | 76 | 196 | 1.7 | 7.8 | 0.00 | 0.00 | 0.00 | 29 | 1010.2 |
| 20260503194557 | 75 | 209 | 4.3 | 7.8 | 0.00 | 0.00 | 0.00 | 30 | 1010.2 |
| 20260503193056 | 75 | 237 | 4.3 | 10.4 | 0.00 | 0.00 | 0.00 | 29 | 1010.2 |
| 20260503191554 | 74 | 223 | 5.2 | 10.4 | 0.00 | 0.00 | 0.00 | 30 | 1010.2 |
| 20260503190058 | 74 | 300 | 5.2 | 12.2 | 0.00 | 0.00 | 0.00 | 29 | 1010.2 |